Regional Weather Roundup
Issued by NWS Newport/Morehead, NC

Current Version | Previous Version | Graphics & Text | Print | Product List | Glossary Off
Versions: 1 2 3 4 5 6 7 8 9 10 11 12 13 14 15 16 17 18 19 20 21 22 23 24 25 26 27 28 29 30 31 32 33 34 35 36 37 38 39 40 41 42 43 44 45 46 47 48 49 50

000
ASUS42 KMHX 191422
RWRMHX
WEATHER ROUNDUP FOR EASTERN NORTH CAROLINA
NATIONAL WEATHER SERVICE NEWPORT/MOREHEAD CITY NC
1000 AM EDT SAT APR 19 2014

NOTE: "FAIR" INDICATES FEW OR NO CLOUDS BELOW 12,000 FEET
WITH NO SIGNIFICANT WEATHER AND/OR OBSTRUCTIONS TO VISIBILITY

NCZ015>017-031-032-045>047-102-103-191500-
NORTH COAST

CITY           SKY/WX    TMP DP  RH WIND       PRES   REMARKS
EDENTON        RAIN      47  45  91 NE7       30.19S
ELIZABETH CITY LGT RAIN  49  42  77 NE13      30.23R
KITTY HAWK     LGT RAIN  47  45  90 N9G18     30.18S
MANTEO         DRIZZLE   47  44  88 NE18G24   30.19S

$$

NCZ045>047-081-094-103-104-191500-
CENTRAL COAST

CITY           SKY/WX    TMP DP  RH WIND       PRES   REMARKS
FRISCO         RAIN      50  50 100 NE14G29   30.13R FOG
SWANQUARTER      N/A     50 N/A N/A NE12G23   30.12S

$$

NCZ095-097-098-100-101-191500-
SOUTHERN COAST

CITY           SKY/WX    TMP DP  RH WIND       PRES   REMARKS
BEAUFORT       RAIN      55  53  93 NE18G32   30.06F FOG
CEDAR ISLAND     N/A     55 N/A N/A N26G37    30.15S
JACKSONVILLE   LGT RAIN  54  54 100 N10       30.06R
NEWPORT          N/A     55  54  94 N13G21      N/A
PINEY ISLAND   HVY RAIN  55  55 100 N14G22    30.12R FOG
WILMINGTON     CLOUDY    56  53  90 NW12      30.05R


$$

NCZ011>013-027>030-043-044-078>080-089-090>093-098-191500-
COASTAL PLAIN

CITY           SKY/WX    TMP DP  RH WIND       PRES   REMARKS
AHOSKIE        CLOUDY    48  45  88 N9        30.21F
CLINTON        DRIZZLE   49  48  98 N9G20     30.09R
ELIZABETHTOWN  HVY RAIN  50  50 100 NE3       30.08R
GOLDSBORO      LGT RAIN  48  48 100 NE12G21   30.09F
GREENVILLE     LGT RAIN  46  45  93 NE9       30.16S
HAVELOCK       LGT RAIN  55  52  89 NE17G29   30.10F
KENANSVILLE    CLOUDY    48  46  94 NE12G24   30.06F
KINSTON        LGT RAIN  48  46  93 NE15G22   30.12S
NEW BERN       RAIN      54  50  87 NE13      30.12S FOG
RICHLANDS      CLOUDY    52 N/A N/A NE26G37   30.02F
ROANOKE RAPIDS NOT AVBL
ROCKY MOUNT    LGT RAIN  47  44  90 NE13      30.16F
WASHINGTON     CLOUDY    48  44  86 NE12      30.15R
WHITEVILLE     CLOUDY    52  51  95 NE9       30.05S

$$

AMZ130-135-150-152-154-156-158-170-250-252-270-ANZ085-086-088-633-658-670-191500-
MARINE OBSERVATIONS

STATION/POSITION TIME  TEMP    WIND        PRES    WAVE   SWELL
                       AIR SEA DIR/SP/G            HT/PER HT/PER
                 (UTC) (F)     (DEG/KT/KT) (MB)    (FT/S) (FT/S)
CHESAPEAKE LIGHT 1400   46      40/ 18/ 19 1024.5
BUOY 44014       1400   50 48   30/ 17/ 19 1022.9    7/11   5/11
DUCK             1400   47 49   30/ 20/ 22 1021.9
2E DUCK          1400      47                N/A     6/ 9   2/11
OREGON INLET     1400   48 51   20/ 20/ 25 1021.4
BUOY 44095       1400      48                N/A     8/11   3/11
HATTERAS CG      1400   52 56   20/ 21/ 28 1019.8
DIAMOND BUOY     NOT AVBL
CAPE LOOKOUT     1400   55      20/ 23/ 31 1017.4
BEAUFORT LAB     1400   54 58   40/ 17/ 26 1016.9
30 SE NEW RIVER  1400   59 67   40/ 29/ 35 1015.2    8/ 6   2/11
5 SE WRIGHTSVILL 1400   58 59   70/ 23/ 29 1015.6
FRYING PAN BUOY  1400   66 67   30/  8/ 10 1014.0    7/ 6   7/ 6
BUOY 41001       NOT AVBL
BUOY 41002       NOT AVBL
BUOY 41004       NOT AVBL

$$



USA.gov is the U.S. government's official web portal to all federal, state and local government web resources and services.